#timestamp,LO_Frequency,Hit,StdDev 
1711648815.2,286047007.8,P
1711648835.1,286047013.7,P
1711648836.0,286047013.7,Y
1711648855.8,286047001.0,P
1711648875.6,286046998.0,N
1711648895.5,286046996.0,N
1711648915.3,286046993.0,N
1711648935.2,286046991.1,N
1711648955.9,286046986.3,N
1711648975.7,286046977.8,Y
1711648995.6,286046975.8,P
1711649015.4,286046972.8,N
1711649035.2,286046976.4,N
1711649055.1,286046970.8,Y
1711649056.0,286046970.8,P
1711649075.8,286046988.3,N
1711649095.7,286046987.0,N
1711649115.5,286046993.2,N
1711649135.3,286046988.9,N
1711649155.2,286046991.2,N
1711649175.0,286046995.4,N
1711649175.9,286046995.4,N
1711649195.8,286046994.9,N
1711649215.6,286046991.7,N
1711649235.4,286046990.2,N
1711649255.3,286046992.7,N
1711649275.1,286046994.6,N
1711649295.8,286046993.8,N
1711649315.7,286046991.2,N
1711649335.5,286046987.7,N
1711649355.4,286046981.8,Y
1711649375.2,286046985.4,P
1711649395.0,286046983.2,P
1711649395.9,286046983.2,P
1711649415.8,286046977.0,Y
1711649435.6,286046984.5,P
1711649455.5,286046981.3,P
1711649475.3,286046976.5,P
1711649495.1,286046978.3,Y
1711649515.9,286046993.2,P
1711649535.7,286046988.7,N
1711649555.5,286046989.0,N
1711649575.4,286046989.7,N
1711649595.2,286046984.1,Y
1711649615.1,286046995.2,P
1711649616.0,286046995.2,N
1711649635.8,286046997.6,N
1711649655.6,286046994.9,N
1711649675.5,286046997.7,N
1711649695.3,286046998.9,N
1711649715.2,286047004.4,N
1711649735.9,286047003.0,N
1711649755.7,286047003.9,N
1711649775.6,286047001.0,N
1711649795.4,286046998.5,N
1711649815.2,286046999.9,N
1711649835.1,286046997.0,N
1711649836.0,286046997.0,N
1711649855.8,286046997.5,N
1711649875.7,286047000.2,N
1711649895.5,286047007.4,N
1711649915.3,286047010.0,N
1711649935.2,286047009.9,N
1711649955.9,286047009.6,N
1711649975.8,286047009.3,N
1711649995.6,286047012.8,N
1711650015.4,286047012.4,N
1711650035.3,286047008.0,N
1711650055.1,286047008.3,N
1711650075.9,286047008.4,N
1711650095.7,286047004.9,N
1711650115.5,286047003.5,N
1711650135.4,286047006.5,N
1711650155.2,286047005.7,N
1711650175.0,286047000.1,N
1711650175.9,286047000.1,N
1711650195.8,286047004.2,N
1711650215.6,286047005.4,N
1711650235.5,286047007.1,N
1711650255.3,286047005.2,N
1711650275.1,286047007.4,N
1711650295.9,286047003.8,N
1711650315.7,286047000.9,N
1711650335.6,286046999.6,N
1711650355.4,286046997.4,N
1711650375.2,286047002.0,N
1711650395.1,286047004.4,N
1711650396.0,286047004.4,N
1711650415.8,286047007.2,N
1711650435.6,286047008.7,N
1711650455.5,286047010.8,N
1711650475.3,286047010.8,N
1711650495.2,286047007.0,N
1711650515.9,286047001.7,N
1711650535.7,286047002.9,N
1711650555.6,286047002.0,N
1711650575.4,286046999.7,N
1711650595.3,286046998.5,N
1711650615.1,286046998.0,N
1711650616.0,286046998.0,N
1711650635.8,286046999.5,N
1711650655.7,286046998.5,N
1711650675.5,286046998.2,N
1711650695.3,286047003.2,N
1711650715.2,286047006.9,N
1711650735.0,286047003.7,N
1711650735.9,286047003.7,N
1711650755.8,286047008.4,N
1711650775.6,286047006.6,N
1711650795.4,286047006.1,N
1711650815.3,286047008.5,N
1711650835.1,286047012.5,Y
1711650855.8,286047011.5,P
1711650875.7,286047012.9,P
1711650895.5,286047012.0,N
1711650915.4,286047008.5,N
1711650935.2,286047010.7,Y
1711650955.0,286046997.1,P
1711650955.9,286046997.1,N
1711650975.8,286046997.5,N
1711650995.6,286046997.7,N
1711651015.4,286046992.6,N
1711651035.3,286046993.0,N
1711651055.1,286046991.0,N
1711651075.9,286046989.4,N
1711651095.7,286046992.4,N
1711651115.5,286046991.4,N
1711651135.4,286046987.1,N
1711651155.2,286046986.3,N
1711651175.0,286046985.2,N
1711651176.0,286046985.2,N
1711651195.8,286046980.7,Y
1711651215.6,286046986.6,P
1711651235.5,286046986.6,P
1711651255.3,286046987.4,P
1711651275.1,286046987.8,Y
1711651295.9,286046997.2,P
1711651315.7,286046999.0,N
1711651335.6,286047000.0,N
1711651355.4,286047001.9,N
1711651375.2,286047004.1,N
1711651395.1,286047004.7,N
1711651396.0,286047004.7,N
1711651415.8,286047004.8,N
1711651435.6,286047010.6,N
1711651455.5,286047012.9,N
1711651475.3,286047016.3,N
1711651495.2,286047016.1,N
1711651515.9,286047020.3,N
1711651535.7,286047018.8,N
1711651555.6,286047018.8,N
1711651575.4,286047016.8,N
1711651595.2,286047016.9,N
1711651615.1,286047016.2,N
1711651616.0,286047016.2,N
1711651635.8,286047018.6,N
1711651655.7,286047019.5,N
1711651675.5,286047020.1,N
1711651695.3,286047016.6,N
1711651715.2,286047017.5,N
1711651735.0,286047014.2,N
1711651735.9,286047014.2,N
1711651755.8,286047012.7,N
1711651775.6,286047011.7,N
1711651795.4,286047009.3,N
1711651815.3,286047010.1,N
1711651835.1,286047013.6,N
1711651855.8,286047020.2,Y
1711651875.7,286047010.4,P
1711651895.5,286047007.7,P
1711651915.4,286047011.6,P
1711651935.2,286047014.3,Y
1711651955.0,286047007.9,P
1711651955.9,286047007.9,P
1711651975.8,286047012.2,P
1711651995.6,286047012.2,Y
1711652015.5,286047004.4,P
1711652035.3,286047005.9,N
1711652055.1,286047005.5,N
1711652075.9,286047006.4,Y
1711652095.7,286047003.1,P
1711652115.5,286047007.9,P
1711652135.4,286047013.7,P
1711652155.2,286047017.9,Y
1711652175.1,286047013.9,P
1711652176.0,286047013.9,P
1711652195.8,286047014.2,P
1711652215.6,286047018.8,Y
1711652235.5,286047006.0,P
1711652255.3,286047007.5,N
1711652275.2,286047004.9,N
1711652295.9,286047007.5,N
1711652315.7,286047006.1,N
1711652335.6,286047008.8,Y
1711652355.4,286047001.8,P
1711652375.2,286047004.2,N
1711652395.1,286047008.8,P
1711652396.0,286047008.8,Y
